Location: Flitcham
(52.8000°N, 0.5667°E)
Time: 07:09:44
(UTC+00:00)

PSLV R/B - Pass Details

Date: 15 May 2026
Orbit: 585 x 678 km, 97.9° (Epoch: 5 June)

Event Time Altitude Azimuth Distance (km) Brightness Sun altitude
Rises 23:09:28 0° 18° (NNE) 2,872 8.1 -17.5°
Reaches altitude 10° 23:11:41 10° 24° (NNE) 1,976 7.0 -17.6°
Maximum altitude 23:15:51 49° 100° (E) 810 4.0 -17.7°
Enters shadow 23:17:17 35° 150° (SSE) 1,022 4.2 -17.7°
